| time (UTC) | temp C | wind direction | speed KPH | gust KPH | rain 1hr cm | rain 24hr cm | rain mn cm | humidity % | barometer mb |
| 20260504081526 | 6 | 246 | 0.0 | 1.6 | 0.00 | 0.00 | 0.00 | 66 | 1014.3 |
| 20260504050005 | 7 | 231 | 0.0 | 3.2 | 0.00 | 0.00 | 0.00 | 65 | 1014.3 |
| 20260504044512 | 7 | 152 | 0.0 | 1.6 | 0.00 | 0.00 | 0.00 | 63 | 1014.3 |
| 20260504043011 | 7 | 152 | 0.0 | 3.2 | 0.00 | 0.00 | 0.00 | 64 | 1014.2 |
| 20260504041506 | 7 | 152 | 0.0 | 3.2 | 0.00 | 0.00 | 0.00 | 61 | 1014.2 |
| 20260504040008 | 8 | 152 | 0.0 | 1.6 | 0.00 | 0.00 | 0.00 | 60 | 1013.9 |
| 20260504034510 | 8 | 152 | 0.0 | 3.2 | 0.00 | 0.00 | 0.00 | 59 | 1013.8 |
| 20260504033008 | 8 | 152 | 0.0 | 1.6 | 0.00 | 0.00 | 0.00 | 57 | 1013.8 |
| 20260504031505 | 8 | 152 | 0.0 | 0.0 | 0.00 | 0.00 | 0.00 | 57 | 1013.7 |
| 20260504030030 | 9 | 152 | 0.0 | 1.6 | 0.00 | 0.00 | 0.00 | 54 | 1013.6 |
| 20260504024510 | 9 | 152 | 0.0 | 3.2 | 0.00 | 0.00 | 0.00 | 53 | 1013.7 |
| 20260504023010 | 8 | 152 | 0.0 | 1.6 | 0.00 | 0.00 | 0.00 | 54 | 1013.7 |
| 20260504021511 | 8 | 152 | 0.0 | 4.8 | 0.00 | 0.00 | 0.00 | 55 | 1013.8 |
| 20260504020010 | 9 | 155 | 0.0 | 3.2 | 0.00 | 0.00 | 0.00 | 56 | 1013.7 |
| 20260504014524 | 9 | 165 | 0.0 | 3.2 | 0.00 | 0.00 | 0.00 | 53 | 1013.7 |
| 20260504013008 | 10 | 166 | 1.6 | 4.8 | 0.00 | 0.00 | 0.00 | 55 | 1013.7 |
| 20260504011514 | 10 | 211 | 0.0 | 1.6 | 0.00 | 0.00 | 0.00 | 53 | 1013.6 |
| 20260504010019 | 10 | 216 | 0.0 | 1.6 | 0.00 | 0.00 | 0.00 | 51 | 1013.4 |
| 20260504004515 | 10 | 207 | 0.0 | 1.6 | 0.00 | 0.00 | 0.00 | 50 | 1013.2 |
| 20260504003025 | 11 | 207 | 0.0 | 3.2 | 0.00 | 0.00 | 0.00 | 53 | 1013.0 |
| 20260504001511 | 12 | 242 | 0.0 | 1.6 | 0.00 | 0.00 | 0.00 | 45 | 1012.8 |
| 20260504000016 | 12 | 242 | 0.0 | 3.2 | 0.00 | 0.00 | 0.00 | 41 | 1012.7 |
| 20260503234529 | 13 | 249 | 1.6 | 12.9 | 0.00 | 0.00 | 0.00 | 40 | 1012.5 |
| 20260503233018 | 13 | 254 | 6.4 | 17.7 | 0.00 | 0.00 | 0.00 | 40 | 1012.4 |
| 20260503231521 | 13 | 263 | 6.4 | 12.9 | 0.00 | 0.00 | 0.00 | 40 | 1012.4 |
| 20260503230017 | 13 | 254 | 8.0 | 14.5 | 0.00 | 0.00 | 0.00 | 40 | 1012.4 |
| 20260503224512 | 13 | 243 | 4.8 | 14.5 | 0.00 | 0.00 | 0.00 | 40 | 1012.4 |
| 20260503223019 | 13 | 247 | 11.3 | 17.7 | 0.00 | 0.00 | 0.00 | 41 | 1012.3 |
| 20260503221520 | 13 | 280 | 9.7 | 16.1 | 0.00 | 0.00 | 0.00 | 39 | 1012.3 |
| 20260503220016 | 13 | 250 | 9.7 | 22.5 | 0.00 | 0.00 | 0.00 | 38 | 1012.3 |
| 20260503214526 | 14 | 255 | 11.3 | 25.7 | 0.00 | 0.00 | 0.00 | 37 | 1012.3 |
| 20260503213018 | 14 | 309 | 12.9 | 32.2 | 0.00 | 0.00 | 0.00 | 35 | 1012.1 |
| 20260503211516 | 14 | 229 | 11.3 | 20.9 | 0.00 | 0.00 | 0.00 | 35 | 1012.0 |
| 20260503210026 | 14 | 285 | 9.7 | 20.9 | 0.00 | 0.00 | 0.00 | 37 | 1012.0 |
| 20260503204533 | 14 | 246 | 14.5 | 22.5 | 0.00 | 0.00 | 0.00 | 37 | 1012.1 |
| 20260503203025 | 14 | 347 | 6.4 | 29.0 | 0.00 | 0.00 | 0.00 | 36 | 1012.1 |
| 20260503201519 | 14 | 300 | 8.0 | 22.5 | 0.00 | 0.00 | 0.00 | 39 | 1012.2 |
| 20260503200016 | 13 | 267 | 11.3 | 27.4 | 0.00 | 0.00 | 0.00 | 42 | 1012.4 |
| 20260503194516 | 13 | 206 | 11.3 | 27.4 | 0.00 | 0.00 | 0.00 | 41 | 1012.5 |
| 20260503193013 | 13 | 326 | 11.3 | 27.4 | 0.00 | 0.00 | 0.00 | 41 | 1012.7 |
| 20260503191510 | 12 | 291 | 9.7 | 20.9 | 0.00 | 0.00 | 0.00 | 42 | 1012.7 |
| 20260503190009 | 13 | 224 | 12.9 | 25.7 | 0.00 | 0.00 | 0.00 | 40 | 1013.0 |
| 20260503184513 | 12 | 251 | 11.3 | 29.0 | 0.00 | 0.00 | 0.00 | 39 | 1013.1 |
| 20260503183024 | 12 | 281 | 12.9 | 27.4 | 0.00 | 0.00 | 0.00 | 49 | 1013.3 |
| 20260503181522 | 12 | 260 | 12.9 | 24.1 | 0.00 | 0.00 | 0.00 | 38 | 1013.2 |
| 20260503180024 | 12 | 279 | 8.0 | 20.9 | 0.00 | 0.00 | 0.00 | 46 | 1013.3 |
| 20260503174515 | 12 | 309 | 16.1 | 30.6 | 0.00 | 0.00 | 0.00 | 44 | 1013.4 |
| 20260503173015 | 11 | 338 | 9.7 | 20.9 | 0.00 | 0.00 | 0.00 | 42 | 1013.5 |
| 20260503171512 | 11 | 265 | 12.9 | 22.5 | 0.00 | 0.00 | 0.00 | 44 | 1013.6 |